map of URT home
URT - Airport
Location
City:  Surat Thani, Surat Thani, Thailand
ICAO:VTSB
IATA:URT

Details
Type:Airport (Aerodrome, Airfield)
Use:Public/Civil, Military
Latitude:9°07'57"N (9.132603)
Longitude:99°08'08"E (99.135586)
Datum:WGS 1984
Elevation:20 ft (6 m)
Variation:0.50°W (WMM2015v2 magnetic declination)
-0.01° annual change
Runways:1
Longest:9843 × 148 ft (3000 × 45 m), paved

Time
Time Zone:UTC+7
Local Time:

Weather
METAR:VTSB 041400Z 01006KT 9000 FEW020 28/25 Q1014
TAF:VTSB 041100Z 0412/0512 04006KT 9999 FEW020
BECMG 0420/0422 5000 BR
BECMG 0501/0503 9999 NSW

Related Locations
Nearby:
Farthest:TRU: 12303 mi / 19800 km
Trujillo [Capitán FAP Carlos Martínez de Pinillos Intl], LAL, PE

Find:

   beyond  
but within

Other Information
Maps:
NOTAMs:
Links:
Sources:

  
  • flag of Thailand
  

Sectional Chart

Flight Planning
at skyvector.com

Satellite Image

Google Maps Satellite view

 

Copyright © 2004-2019 Karl L. Swartz. All rights reserved.
The Great Circle Mapper name and logo are trademarks of the Great Circle Mapper.
All other trademarks mentioned herein belong to their respective owners.
Please see credits for attibutions and further copyright information.

  Follow gcmap on Facebook Follow gcmap on Twitter GCmap on LinkedIn

hCard Microformat

Geo Microformat